Location: Bartshausen
(51.8454°N, 9.8167°E)
Time: 10:19:07
(UTC+00:00)

Cosmos 968 Rocket - Pass Details

Date: 08 November 2025
Orbit: 735 x 766 km, 74.0° (Epoch: 11 December)

Event Time Altitude Azimuth Distance (km) Brightness Sun altitude
Rises 05:33:36 0° 336° (NNW) 3,232 6.3 -8.6°
Reaches altitude 10° 05:36:00 10° 339° (NNW) 2,307 5.6 -8.3°
Maximum altitude 05:41:13 67° 62° (ENE) 833 3.9 -7.5°
Drops below altitude 10° 05:46:25 10° 145° (SE) 2,302 6.9 -6.8°
Sets 05:48:49 0° 148° (SSE) 3,225 7.6 -6.4°
